Weather History for Swansboro, NC

Change the Weather History Date:

Saturday, October 6, 2012

  Actual Average (KNKT) Record (KNKT)
Temperature  
Mean Temperature 70 °F -  
Max Temperature 80 °F 75 °F 88 °F (1997)
Min Temperature 60 °F 56 °F 46 °F (2010)
Cooling Degree Days 5    
Growing Degree Days 20 (Base 50)    
Moisture  
Dew Point 62 °F    
Average Humidity 75    
Maximum Humidity 96    
Minimum Humidity 48    
Precipitation  
Precipitation 0.01 in - - ()
Sea Level Pressure  
Sea Level Pressure 29.98 in    
Wind  
Wind Speed 3 mph (SW)    
Max Wind Speed 12 mph    
Max Gust Speed -    
Visibility 9 miles    
Events      
Averages and records for this station are not official NWS values.
T = Trace of Precipitation, MM = Missing Value Source: NWS Daily Summary

Daily Weather History Graph

Daily Weather History Graph

Search for Another Location

Airport:

Trip Planner

Search our weather history database for the weather conditions in past years. The results will help you decide how hot, cold, wet, or windy it might be!

Date:

Astronomy

Oct. 06, 2012 Rise Set
Actual Time 7:06 AM EDT 6:44 PM EDT
Civil Twilight 6:41 AM EDT 7:09 PM EDT
Nautical Twilight 6:12 AM EDT 7:38 PM EDT
Astronomical Twilight 5:43 AM EDT 8:08 PM EDT
Moon 11:09 PM EDT (10/6) 12:48 PM EDT (10/6)
Length of Visible Light 12h 28m
Length of Day
11h 37m
Waning Gibbous, 65% of the Moon is Illuminated
Oct 6
Waning Gibbous
Oct 8
Last Quarter
Oct 15
New
Oct 21
First Quarter
Oct 29
Full

Hourly Weather History & Observations

Time (EDT) Temp. Heat Index Dew Point Humidity Pressure Visibility Wind Dir Wind Speed Gust Speed Precip Events Conditions
12:57 AM 64.9 °F - 63.0 °F 93% 30.05 in 10.0 mi Calm Calm - N/A   Clear
1:57 AM 64.0 °F - 62.1 °F 93% 30.04 in 9.0 mi Calm Calm - N/A   Clear
2:57 AM 63.0 °F - 61.0 °F 93% 30.01 in 8.0 mi Calm Calm - 0.01 in   Clear
3:57 AM 63.0 °F - 61.0 °F 93% 30.01 in 8.0 mi Calm Calm - N/A   Clear
4:57 AM 64.0 °F - 62.1 °F 93% 30.00 in 8.0 mi NW 5.8 mph - N/A   Clear
5:57 AM 62.1 °F - 60.1 °F 93% 30.01 in 10.0 mi NW 3.5 mph - N/A   Clear
6:57 AM 60.1 °F - 59.0 °F 96% 30.01 in 8.0 mi Calm Calm - N/A   Clear
7:57 AM 63.0 °F - 61.0 °F 93% 30.01 in 8.0 mi Calm Calm - N/A   Unknown
8:57 AM 70.0 °F - 64.0 °F 81% 30.01 in 10.0 mi NW 3.5 mph - N/A   Unknown
10:57 AM 77.0 °F - 59.0 °F 54% 30.01 in 10.0 mi SW 5.8 mph - N/A   Clear
11:57 AM 78.1 °F - 59.0 °F 52% 30.00 in 10.0 mi SSW 5.8 mph - N/A   Clear
12:57 PM 80.1 °F 80.7 °F 59.0 °F 48% 29.97 in 10.0 mi SSW 10.4 mph - N/A   Clear
1:57 PM 79.0 °F - 61.0 °F 54% 29.94 in 10.0 mi South 10.4 mph - N/A   Clear
3:57 PM 79.0 °F - 62.1 °F 56% 29.92 in 10.0 mi South 11.5 mph - N/A   Clear
4:57 PM 77.0 °F - 64.0 °F 64% 29.92 in 10.0 mi SSW 9.2 mph - N/A   Clear
5:57 PM 75.9 °F - 64.0 °F 67% 29.93 in 10.0 mi SW 6.9 mph - N/A   Clear
6:57 PM 75.0 °F - 64.0 °F 69% 29.94 in 10.0 mi SW 5.8 mph - N/A   Clear
7:57 PM 75.0 °F - 64.9 °F 71% 29.96 in 10.0 mi SW 4.6 mph - N/A   Clear
8:57 PM 75.0 °F - 64.0 °F 69% 29.97 in 10.0 mi SSW 6.9 mph - N/A   Clear
10:57 PM 73.9 °F - 64.9 °F 73% 29.98 in 10.0 mi SW 4.6 mph - N/A   Clear